Temp
-15 -15 -15 -16 -16 -16 -16 -15 -15 -16 -16 -16 -16 -15 -15 -15 -15 -15 -15 -16 -15 -15 -15 -15 -15 -15 -15 -15 -15 -15 -15 -15 -15 -15 -15 -14 -15 -15 -15 -15 -15 -15
-15 -15 -15 -15 -15 -15 -15 -15 -15 -16 -16 -16 -16 -16 -15 -15 -15 -16 -16 -16 -16 -15 -15 -15 -15 -15 -15 -15 -15 -15 -15 -15 -15 -15 -15 -15 -15 -15 -15 -15 -15 -15
-15 -15 -15 -15 -15 -15 -15 -15 -15 -15 -16 -16 -16 -16 -16 -15 -16 -16 -16 -16 -15 -15 -15 -15 -15 -15 -15 -15 -15 -15 -15 -15 -15 -15 -15 -15 -15 -15 -15 -15 -15 -15
-15 -15 -15 -15 -15 -15 -15 -15 -15 -15 -15 -16 -16 -16 -16 -16 -16 -16 -16 -16 -16 -16 -15 -15 -15 -15 -15 -15 -15 -15 -15 -15 -15 -15 -15 -15 -15 -15 -15 -15 -15 -16
-15 -15 -15 -15 -15 -15 -15 -15 -15 -15 -15 -15 -16 -16 -16 -16 -16 -16 -16 -16 -16 -16 -16 -16 -15 -15 -15 -15 -15 -15 -16 -15 -15 -15 -15 -15 -15 -15 -15 -15 -15 -16
-15 -15 -15 -15 -15 -15 -15 -15 -15 -15 -15 -15 -16 -16 -16 -16 -16 -16 -16 -16 -16 -16 -16 -16 -16 -16 -16 -16 -16 -16 -16 -16 -15 -15 -15 -15 -15 -15 -16 -16 -16 -16
-16 -16 -15 -15 -15 -15 -15 -15 -15 -15 -16 -16 -16 -16 -16 -16 -16 -17 -16 -16 -16 -16 -16 -16 -16 -16 -16 -16 -16 -16 -16 -16 -16 -16 -16 -16 -16 -16 -16 -16 -16 -16
-16 -16 -16 -15 -15 -15 -15 -15 -15 -16 -16 -16 -16 -16 -16 -17 -17 -17 -16 -16 -16 -16 -16 -16 -17 -16 -16 -16 -16 -16 -16 -16 -16 -16 -16 -16 -16 -16 -16 -16 -16 -16
-16 -16 -16 -15 -15 -15 -15 -15 -16 -16 -16 -16 -16 -16 -16 -16 -16 -16 -16 -16 -16 -16 -17 -17 -17 -16 -16 -16 -16 -16 -16 -16 -16 -16 -16 -16 -16 -16 -16 -16 -16 -16
-16 -16 -16 -15 -15 -15 -15 -15 -16 -16 -16 -16 -16 -16 -16 -16 -16 -16 -16 -16 -16 -17 -17 -17 -17 -16 -16 -16 -16 -16 -16 -16 -16 -16 -16 -16 -16 -16 -16 -16 -16 -16
-16 -16 -16 -15 -15 -15 -15 -15 -16 -16 -16 -16 -16 -16 -16 -16 -16 -16 -16 -16 -16 -17 -17 -17 -17 -17 -17 -17 -17 -17 -17 -16 -16 -16 -16 -16 -17 -16 -16 -16 -16 -17
-16 -16 -15 -15 -15 -15 -15 -15 -16 -16 -16 -16 -16 -16 -16 -16 -16 -16 -16 -16 -16 -16 -16 -17 -17 -17 -17 -17 -17 -17 -17 -17 -17 -17 -17 -17 -17 -17 -17 -17 -17 -17
-16 -15 -15 -15 -15 -15 -15 -16 -16 -16 -16 -16 -16 -16 -16 -16 -17 -17 -16 -16 -16 -16 -17 -17 -17 -17 -17 -17 -17 -17 -17 -17 -17 -17 -17 -17 -17 -17 -17 -17 -17 -17
-15 -15 -15 -15 -15 -15 -16 -16 -16 -16 -16 -16 -16 -16 -16 -16 -17 -17 -17 -17 -17 -17 -17 -17 -17 -17 -17 -17 -17 -17 -17 -17 -17 -17 -17 -17 -18 -18 -17 -17 -17 -18
-15 -16 -15 -15 -15 -15 -16 -15 -16 -16 -16 -16 -16 -16 -16 -16 -16 -17 -17 -17 -17 -17 -17 -17 -17 -17 -17 -17 -17 -17 -17 -17 -18 -18 -18 -18 -18 -18 -18 -18 -18 -18
-16 -16 -16 -15 -15 -15 -15 -15 -15 -16 -16 -16 -16 -16 -16 -16 -16 -17 -17 -17 -17 -17 -17 -17 -17 -17 -17 -17 -18 -18 -18 -18 -18 -18 -18 -18 -18 -18 -18 -18 -18 -18
-16 -16 -16 -15 -15 -15 -15 -15 -16 -16 -16 -16 -16 -16 -16 -16 -17 -17 -17 -17 -17 -17 -17 -17 -17 -17 -17 -17 -17 -18 -18 -18 -18 -18 -18 -18 -18 -18 -18 -18 -18 -18
-16 -16 -16 -16 -16 -16 -16 -16 -16 -16 -16 -16 -16 -16 -17 -17 -17 -17 -17 -17 -17 -17 -17 -17 -17 -17 -17 -17 -17 -17 -17 -18 -18 -18 -18 -18 -18 -18 -18 -18 -18 -18
-16 -16 -16 -16 -16 -16 -16 -16 -16 -16 -16 -17 -17 -17 -17 -17 -17 -17 -17 -17 -17 -17 -17 -17 -17 -17 -17 -17 -17 -17 -17 -18 -18 -18 -18 -18 -18 -18 -18 -18 -18 -18
-17 -17 -17 -16 -16 -16 -17 -17 -17 -17 -17 -17 -17 -17 -17 -17 -17 -17 -17 -17 -17 -17 -17 -17 -18 -18 -18 -18 -17 -18 -18 -18 -18 -18 -18 -18 -18 -18 -18 -18 -18 -18
-17 -17 -17 -17 -17 -17 -17 -17 -17 -17 -17 -17 -17 -17 -17 -17 -17 -17 -17 -17 -17 -17 -17 -18 -18 -18 -18 -18 -18 -18 -18 -18 -18 -18 -18 -18 -18 -18 -18 -18 -18 -18
-17 -17 -17 -17 -17 -17 -17 -17 -17 -18 -18 -18 -17 -17 -17 -18 -18 -18 -17 -17 -17 -18 -18 -18 -18 -18 -18 -18 -18 -18 -18 -18 -18 -18 -18 -18 -18 -18 -18 -18 -18 -18
-17 -17 -17 -17 -17 -17 -17 -18 -18 -18 -18 -18 -18 -17 -17 -18 -18 -18 -18 -18 -18 -18 -18 -18 -18 -18 -18 -18 -18 -18 -18 -18 -18 -18 -18 -19 -19 -19 -19 -19 -19 -19
-17 -17 -17 -17 -17 -17 -17 -18 -18 -18 -18 -18 -18 -18 -17 -18 -18 -19 -18 -18 -18 -19 -18 -18 -18 -18 -18 -18 -18 -18 -18 -18 -18 -18 -18 -19 -19 -19 -19 -19 -19 -19
-18 -18 -18 -18 -18 -18 -18 -18 -18 -18 -18 -18 -18 -18 -18 -18 -18 -19 -19 -18 -19 -19 -19 -18 -18 -18 -18 -18 -18 -18 -18 -18 -19 -19 -19 -19 -19 -19 -19 -19 -19 -20
-18 -18 -18 -18 -18 -18 -18 -18 -18 -18 -18 -18 -19 -19 -19 -19 -19 -19 -19 -19 -19 -19 -19 -19 -19 -19 -19 -18 -18 -19 -19 -19 -19 -19 -19 -19 -19 -19 -19 -20 -20 -20
Height
5757 5758 5759 5761 5762 5763 5764 5766 5767 5768 5769 5770 5771 5773 5774 5775 5775 5775 5776 5777 5777 5778 5779 5779 5780 5780 5781 5781 5781 5782 5782 5783 5783 5784 5784 5784 5784 5785 5785 5786 5786 5786
5756 5757 5758 5759 5760 5761 5762 5764 5765 5766 5767 5768 5769 5771 5772 5772 5772 5772 5773 5774 5775 5776 5777 5777 5778 5778 5779 5779 5779 5780 5780 5781 5781 5782 5782 5782 5782 5783 5783 5784 5784 5785
5755 5756 5756 5757 5758 5760 5761 5762 5763 5764 5765 5766 5767 5768 5769 5769 5770 5770 5771 5772 5773 5774 5775 5775 5776 5776 5777 5777 5777 5778 5778 5779 5780 5780 5780 5780 5780 5781 5781 5781 5782 5783
5754 5754 5755 5756 5757 5758 5760 5761 5761 5762 5762 5763 5764 5765 5766 5766 5767 5769 5769 5770 5771 5772 5773 5773 5773 5774 5774 5775 5775 5776 5776 5777 5777 5778 5778 5778 5778 5779 5779 5779 5780 5781
5754 5753 5754 5755 5756 5757 5758 5758 5759 5759 5760 5761 5762 5763 5764 5764 5765 5767 5767 5768 5769 5770 5770 5771 5771 5771 5772 5772 5772 5773 5773 5774 5774 5775 5775 5776 5776 5777 5777 5778 5778 5779
5752 5751 5751 5752 5753 5754 5755 5755 5756 5757 5758 5760 5761 5762 5762 5763 5763 5764 5765 5766 5766 5767 5767 5768 5768 5769 5769 5769 5769 5770 5770 5771 5772 5773 5773 5774 5774 5775 5776 5776 5777 5777
5748 5748 5749 5750 5751 5752 5752 5753 5754 5755 5756 5758 5759 5760 5760 5760 5761 5762 5763 5763 5763 5764 5764 5765 5765 5766 5766 5767 5767 5768 5768 5769 5770 5771 5771 5772 5772 5773 5774 5774 5775 5776
5745 5746 5747 5748 5749 5750 5751 5751 5752 5753 5754 5755 5756 5758 5758 5758 5759 5760 5761 5761 5761 5761 5761 5761 5762 5763 5763 5764 5765 5765 5766 5767 5768 5768 5769 5769 5770 5771 5771 5772 5773 5774
5742 5744 5745 5746 5747 5748 5748 5749 5749 5750 5751 5753 5754 5755 5756 5756 5757 5758 5758 5758 5758 5758 5759 5759 5759 5760 5761 5761 5762 5763 5764 5765 5765 5766 5766 5767 5767 5768 5769 5770 5771 5772
5740 5742 5743 5744 5745 5744 5745 5746 5747 5748 5749 5751 5752 5753 5754 5754 5755 5755 5756 5756 5756 5756 5757 5757 5757 5758 5758 5759 5760 5761 5762 5762 5763 5763 5764 5765 5765 5766 5767 5768 5769 5769
5739 5740 5741 5742 5742 5741 5743 5745 5746 5747 5748 5749 5750 5751 5751 5752 5752 5752 5753 5753 5753 5754 5754 5755 5755 5756 5756 5757 5758 5758 5759 5760 5761 5761 5762 5762 5763 5764 5765 5765 5766 5766
5737 5738 5738 5739 5738 5739 5742 5744 5745 5746 5747 5747 5748 5748 5748 5749 5750 5750 5750 5750 5751 5751 5752 5752 5753 5753 5754 5754 5755 5756 5757 5757 5758 5759 5759 5760 5761 5761 5762 5762 5762 5763
5735 5735 5736 5735 5735 5737 5740 5741 5742 5743 5744 5745 5746 5746 5746 5746 5747 5747 5748 5748 5749 5749 5749 5750 5750 5750 5751 5752 5752 5753 5754 5755 5755 5756 5757 5757 5758 5758 5759 5759 5759 5759
5732 5733 5733 5733 5734 5736 5737 5738 5739 5740 5741 5742 5743 5743 5743 5744 5744 5745 5746 5747 5747 5747 5748 5748 5748 5748 5749 5749 5750 5750 5751 5752 5752 5753 5754 5755 5755 5756 5756 5756 5756 5756
5730 5730 5731 5732 5733 5734 5735 5736 5737 5738 5739 5739 5740 5741 5741 5741 5742 5743 5744 5745 5745 5745 5746 5746 5746 5746 5747 5747 5748 5748 5748 5749 5750 5750 5751 5752 5752 5753 5753 5753 5753 5753
5728 5729 5730 5731 5732 5733 5734 5735 5736 5736 5737 5737 5738 5738 5739 5739 5740 5741 5742 5743 5743 5743 5743 5743 5744 5744 5745 5745 5746 5746 5746 5747 5747 5748 5748 5749 5749 5750 5750 5750 5750 5750
5727 5728 5729 5730 5731 5732 5732 5733 5734 5734 5734 5735 5735 5735 5736 5736 5737 5738 5739 5740 5740 5740 5740 5741 5741 5742 5742 5743 5743 5744 5744 5745 5745 5746 5746 5746 5747 5747 5747 5747 5747 5747
5725 5726 5727 5727 5728 5729 5730 5731 5731 5732 5732 5732 5732 5732 5733 5733 5735 5736 5737 5738 5738 5738 5738 5738 5738 5739 5739 5740 5740 5741 5741 5742 5742 5743 5743 5743 5743 5744 5744 5744 5744 5744
5722 5724 5725 5725 5726 5726 5727 5728 5728 5728 5729 5729 5729 5729 5730 5731 5732 5734 5735 5735 5735 5735 5735 5735 5736 5736 5737 5737 5737 5738 5738 5738 5739 5739 5739 5739 5739 5740 5740 5740 5741 5741
5720 5721 5722 5723 5723 5722 5723 5724 5724 5724 5724 5725 5726 5727 5728 5729 5730 5732 5732 5731 5731 5731 5732 5732 5733 5733 5734 5734 5735 5735 5735 5735 5736 5736 5735 5735 5735 5735 5735 5736 5736 5736
5716 5717 5718 5718 5719 5719 5719 5721 5721 5720 5721 5723 5724 5725 5725 5726 5727 5729 5729 5728 5728 5728 5728 5728 5729 5730 5730 5730 5731 5731 5732 5732 5732 5732 5732 5731 5731 5731 5731 5731 5731 5731
5713 5713 5714 5714 5715 5716 5717 5718 5718 5717 5718 5720 5721 5723 5723 5722 5722 5724 5725 5724 5725 5726 5725 5725 5725 5725 5725 5726 5727 5727 5727 5728 5728 5728 5727 5727 5727 5727 5727 5727 5726 5726
5711 5711 5711 5712 5712 5713 5714 5714 5715 5715 5716 5718 5719 5720 5721 5719 5718 5720 5721 5722 5722 5722 5722 5722 5722 5721 5721 5722 5723 5723 5723 5723 5724 5723 5723 5722 5722 5722 5722 5721 5721 5721
5708 5708 5708 5709 5709 5710 5711 5711 5711 5712 5713 5714 5715 5717 5718 5717 5716 5717 5718 5719 5718 5718 5718 5718 5718 5718 5718 5718 5718 5718 5718 5719 5719 5718 5718 5717 5717 5717 5716 5716 5716 5716
5704 5704 5704 5705 5705 5706 5707 5708 5708 5709 5709 5710 5711 5712 5713 5713 5713 5713 5714 5714 5714 5713 5714 5714 5714 5714 5714 5714 5714 5713 5713 5713 5713 5713 5712 5712 5711 5711 5710 5710 5710 5710
5698 5699 5699 5700 5700 5701 5703 5704 5704 5705 5706 5706 5707 5707 5708 5708 5708 5708 5708 5708 5708 5708 5708 5709 5709 5709 5709 5709 5708 5708 5708 5708 5707 5707 5706 5706 5705 5705 5705 5704 5704 5704
Wind_Speed
17 18 18 19 19 19 19 18 18 19 19 19 19 19 17 16 15 15 14 14 14 14 14 15 16 15 15 15 14 14 13 12 12 12 13 14 14 14 15 15 16 16
17 17 18 19 19 19 20 20 19 19 20 20 20 19 17 15 14 14 13 13 13 14 15 16 16 16 16 16 16 15 14 15 15 15 15 15 15 15 15 15 15 14
16 17 18 19 19 19 19 19 20 21 22 22 21 18 17 16 15 15 14 14 13 13 14 16 17 17 16 17 17 16 16 16 17 17 16 15 15 15 15 14 14 14
18 18 18 18 18 18 18 18 19 20 21 22 20 18 19 19 18 18 18 17 14 13 14 15 16 17 17 17 17 17 16 16 16 16 15 14 13 13 14 14 14 14
19 19 19 18 18 18 19 20 20 19 19 19 19 19 21 22 21 20 19 19 18 16 15 15 15 16 17 18 17 16 16 15 15 14 13 12 12 12 13 13 13 14
21 21 21 20 19 19 20 20 20 19 18 17 18 19 20 20 19 18 17 18 18 18 17 15 14 15 16 17 17 16 15 14 13 12 11 11 10 10 11 12 13 14
24 24 23 22 21 20 20 20 19 17 16 16 16 16 17 18 18 18 18 19 19 19 18 15 15 16 16 17 17 16 14 12 11 10 9 9 9 9 9 10 12 13
25 24 23 23 22 21 20 20 18 15 14 14 14 14 15 18 18 18 19 20 21 21 18 16 16 17 17 17 16 14 12 11 10 9 9 9 9 8 9 10 11 13
25 24 23 23 22 21 21 20 17 15 14 14 13 12 14 17 17 17 18 20 21 21 18 17 17 18 18 16 15 13 11 10 10 9 9 9 9 9 9 10 11 12
25 23 23 23 23 24 24 21 18 17 15 13 13 15 17 19 19 20 20 20 20 19 19 19 18 18 16 14 13 12 11 10 10 9 9 9 9 9 9 10 11 12
24 24 24 25 26 28 25 21 19 17 14 12 15 19 20 20 20 21 21 19 18 18 19 20 18 16 15 14 13 12 11 10 9 9 9 9 9 9 9 10 11 11
24 23 24 27 29 27 24 23 21 19 17 16 18 22 21 19 18 18 18 17 17 19 21 21 18 16 15 14 13 11 10 10 10 10 10 10 10 10 10 10 11 11
24 25 27 29 30 26 22 22 21 20 21 21 21 23 22 17 15 15 15 16 18 21 23 22 20 17 16 14 13 11 11 11 11 11 12 12 12 11 11 11 11 11
23 26 26 26 25 23 21 20 20 21 22 23 23 24 21 18 16 15 17 18 20 21 21 21 20 17 15 14 13 13 13 13 13 13 13 13 13 13 12 12 11 10
21 20 19 18 18 19 20 21 21 22 23 23 24 24 23 22 19 18 18 19 19 18 17 17 17 16 14 14 13 14 14 13 13 13 14 14 14 13 13 12 11 11
20 18 17 17 19 20 21 21 21 21 22 23 23 23 23 22 20 18 17 17 16 16 15 14 14 14 14 14 14 14 13 12 12 12 13 14 14 13 13 12 13 14
19 19 18 19 19 20 20 20 20 20 20 21 21 21 21 20 19 18 17 15 14 14 13 13 14 14 14 14 14 14 14 13 13 13 14 14 14 15 15 15 16 17
19 18 18 19 19 19 20 20 20 20 20 21 20 20 19 18 18 17 16 15 15 15 15 14 14 14 14 15 15 16 16 16 16 16 16 17 17 18 19 19 20 20
21 20 19 19 20 21 21 21 21 21 21 20 19 19 18 18 17 16 15 16 17 16 16 15 16 17 17 18 19 19 20 20 19 19 20 20 21 22 23 23 24 24
22 21 20 19 20 21 21 21 22 23 22 20 18 18 19 20 19 18 19 20 19 18 18 18 19 20 21 22 22 22 23 23 23 23 24 24 25 26 27 27 28 28
21 21 21 19 19 19 19 19 21 22 21 19 19 20 21 23 23 22 22 22 20 20 22 23 23 25 26 27 27 27 27 28 28 28 29 29 30 30 31 31 32 33
26 26 25 24 24 23 23 22 22 23 22 20 20 21 23 25 25 23 23 23 22 21 23 24 25 27 29 29 30 32 32 32 32 32 33 34 34 34 34 35 36 37
30 30 30 30 31 30 30 28 27 27 26 24 24 25 25 25 25 24 24 24 25 25 27 28 29 30 31 32 34 35 36 37 37 38 39 39 39 38 38 38 39 39
30 32 33 34 35 35 34 33 32 31 30 28 27 27 27 28 28 28 28 29 31 33 34 35 36 37 38 39 40 41 42 43 44 44 45 45 45 44 44 43 42 42
33 35 36 37 37 38 37 37 36 36 35 34 33 33 34 36 36 36 36 37 39 39 40 41 42 43 44 45 46 47 48 49 49 49 49 49 49 49 48 47 46 44
32 33 35 37 38 39 39 39 39 39 39 39 39 40 41 41 41 41 41 42 42 42 43 44 46 47 48 49 50 51 52 52 52 52 51 51 51 51 50 49 47 44
Wind_Direction
219 224 227 228 228 223 221 225 227 225 229 235 241 245 247 250 252 253 253 255 258 260 260 259 256 255 255 256 256 254 247 241 240 244 248 250 251 252 253 253 253 252
226 231 233 233 231 227 223 225 229 231 233 240 247 250 252 252 253 255 258 258 259 259 259 259 259 257 256 255 254 252 249 245 245 250 255 257 256 254 251 249 247 245
232 233 234 232 228 226 226 228 232 235 237 242 249 255 258 258 256 257 260 261 262 263 261 260 259 257 255 252 252 252 251 250 249 253 259 262 259 254 250 245 241 237
235 235 234 233 229 228 230 233 237 240 242 243 246 251 257 259 260 262 263 262 264 270 271 267 261 255 251 248 248 249 249 249 250 253 258 258 256 252 249 246 243 239
246 243 239 236 233 232 234 238 241 244 245 245 244 247 253 259 265 269 270 268 269 272 276 273 264 255 247 243 243 243 244 244 245 247 249 248 249 249 249 249 248 245
251 249 245 239 235 235 238 242 245 247 251 254 253 253 258 264 270 275 277 276 274 274 274 271 262 253 246 242 240 240 240 241 242 243 244 245 248 249 249 251 251 250
246 246 246 245 243 244 246 248 250 254 259 261 262 264 265 268 273 278 280 280 278 275 271 262 252 247 244 241 240 240 241 243 243 242 241 243 245 246 245 244 243 242
245 245 247 249 250 252 254 255 256 258 262 267 274 276 272 270 272 278 282 280 276 274 271 262 250 243 241 239 238 239 242 244 242 238 235 238 243 245 242 238 235 234
243 244 247 248 248 250 252 254 254 250 252 264 277 277 269 268 269 274 282 281 276 275 272 263 252 243 240 238 235 234 235 236 236 235 236 239 242 243 240 238 236 235
242 242 244 243 244 247 247 248 248 246 247 256 264 262 260 262 265 270 277 279 277 275 270 265 258 250 241 232 226 226 227 230 233 237 242 246 248 249 247 242 238 237
240 239 240 241 244 248 248 245 244 247 253 259 262 261 260 263 267 270 270 270 273 275 271 265 259 249 236 225 221 222 225 231 236 241 246 250 250 250 248 242 239 239
237 236 239 241 243 246 250 251 249 252 259 260 260 262 265 267 270 270 267 265 269 271 267 260 250 237 231 228 227 226 229 236 243 247 250 252 250 247 242 238 235 236
241 243 246 248 248 248 252 253 250 251 256 259 259 263 266 266 265 266 267 265 265 263 259 254 246 236 230 231 233 236 240 246 250 252 251 252 251 247 243 239 235 235
244 248 250 252 252 251 252 254 254 257 261 265 265 262 259 257 258 261 261 261 262 259 256 254 251 243 236 235 238 243 246 248 250 250 250 250 250 250 250 247 243 243
242 244 245 249 253 255 257 260 262 264 266 267 266 260 256 256 258 257 256 258 260 259 255 254 252 248 243 241 240 242 244 244 245 247 249 250 251 252 254 254 257 261
243 244 247 252 255 257 259 261 262 263 264 263 261 257 253 254 254 254 254 257 258 256 252 248 247 245 244 243 240 239 239 240 243 247 249 250 250 250 252 258 265 271
246 247 251 255 256 255 256 258 258 258 257 254 250 249 249 250 251 251 250 250 250 247 244 241 239 239 241 243 244 243 241 243 247 250 251 251 249 249 251 256 263 268
250 251 253 257 258 258 258 257 254 253 253 251 249 250 250 247 245 245 246 248 250 249 247 242 238 237 240 244 247 247 246 247 249 251 252 253 254 253 254 257 260 263
251 253 254 256 258 257 255 252 251 252 253 254 255 255 252 246 243 247 254 259 259 258 256 253 248 248 252 255 257 256 253 253 252 252 253 255 256 256 257 259 261 262
251 252 252 255 257 256 254 254 256 255 253 252 254 254 252 251 252 257 262 263 263 263 263 260 257 257 262 265 265 263 260 257 255 254 254 255 256 257 258 260 262 262
247 250 250 249 249 250 250 255 259 259 255 250 249 253 257 257 257 259 260 261 264 266 266 265 265 264 265 266 266 265 264 261 258 256 256 256 257 258 259 261 262 263
244 247 248 246 245 246 248 250 252 253 253 248 245 250 256 256 256 256 257 260 262 260 258 260 262 263 265 267 268 268 267 265 263 262 260 259 260 260 261 262 263 264
249 250 250 249 248 247 248 249 249 251 254 253 250 251 251 250 251 253 255 258 257 253 254 258 260 263 266 269 270 270 269 268 269 269 267 266 266 266 267 267 267 267
254 254 253 252 251 249 248 248 248 249 251 250 248 248 245 244 248 252 254 256 256 257 261 264 265 266 268 269 270 270 270 270 271 271 271 272 272 272 273 273 273 272
250 249 250 251 251 250 249 248 248 248 247 246 246 247 247 247 251 255 256 257 259 260 261 262 262 263 265 267 268 269 270 271 272 273 274 274 275 275 275 276 276 275
242 242 244 245 247 248 248 247 247 246 246 246 247 249 250 252 254 255 257 258 259 260 260 260 260 261 263 265 267 268 269 271 272 273 274 275 276 275 275 275 274 274